Regional Weather Roundup
Issued by NWS Tiyan, Guam

Home | Current Version | Previous Version | Text Only | Print | Product List | Glossary On
Versions: 1 2 3 4 5 6 7 8 9 10 11 12 13 14 15 16 17 18 19 20 21 22 23 24 25 26 27 28 29 30 31 32 33 34 35 36 37 38 39 40 41 42 43 44 45 46 47 48 49 50
000
ASGM40 PGUM 252012
RWRGUM
WEATHER ROUNDUP FOR THE MARIANAS
NATIONAL WEATHER SERVICE TIYAN GU
600 AM CHST WED NOV 26 2014

GUZ001>004-252100-
MARIANA ISLANDS-

CITY           SKY/WX    TMP DP  RH WIND       PRES   REMARKS
GUAM AIRPORT   CLEAR     81  72  74 E3        29.84R
ANDERSEN AFB   CLEAR     79  73  83 E12       29.84R
ROTA AIRPORT   PTCLDY    79  73  83 E7        29.85
TINIAN AP      PTCLDY    81  75  83 E3        29.83
SAIPAN AP      PTCLDY    81  75  83 E8        29.85R

$$



USA.gov is the U.S. government's official web portal to all federal, state and local government web resources and services.